TimeEST,TemperatureF,Dew PointF,Humidity,Sea Level PressureIn,VisibilityMPH,Wind Direction,Wind SpeedMPH,Gust SpeedMPH,PrecipitationIn,Events,Conditions,WindDirDegrees,DateUTC
12:15 AM,41.0,21.2,45,30.06,10.0,North,3.5,-,N/A,,Clear,350,2013-01-21 05:15:00
12:36 AM,41.0,23.0,49,30.07,10.0,North,4.6,-,N/A,,Clear,360,2013-01-21 05:36:00
12:57 AM,37.4,21.2,52,30.07,10.0,NNE,4.6,-,N/A,,Clear,20,2013-01-21 05:57:00
1:19 AM,37.4,23.0,56,30.07,10.0,North,9.2,-,N/A,,Clear,10,2013-01-21 06:19:00
2:01 AM,35.6,21.2,56,30.08,10.0,North,6.9,-,N/A,,Clear,10,2013-01-21 07:01:00
2:23 AM,35.6,21.2,56,30.10,10.0,North,4.6,-,N/A,,Clear,10,2013-01-21 07:23:00
2:44 AM,35.6,21.2,56,30.10,10.0,ENE,4.6,-,N/A,,Clear,60,2013-01-21 07:44:00
3:05 AM,35.6,21.2,56,30.11,10.0,North,4.6,-,N/A,,Clear,360,2013-01-21 08:05:00
3:27 AM,33.8,21.2,60,30.11,10.0,NNE,4.6,-,N/A,,Clear,30,2013-01-21 08:27:00
3:48 AM,32.0,21.2,64,30.10,10.0,NNE,4.6,-,N/A,,Clear,30,2013-01-21 08:48:00
4:09 AM,32.0,21.2,64,30.10,10.0,NE,3.5,-,N/A,,Clear,40,2013-01-21 09:09:00
4:31 AM,32.0,21.2,64,30.10,10.0,NE,3.5,-,N/A,,Clear,50,2013-01-21 09:31:00
4:52 AM,32.0,21.2,64,30.10,10.0,Calm,Calm,-,N/A,,Clear,0,2013-01-21 09:52:00
5:35 AM,30.2,24.8,80,30.10,10.0,Calm,Calm,-,N/A,,Clear,0,2013-01-21 10:35:00
5:56 AM,28.4,23.0,80,30.10,10.0,Calm,Calm,-,N/A,,Clear,0,2013-01-21 10:56:00
6:17 AM,28.4,23.0,80,30.10,10.0,Calm,Calm,-,N/A,,Clear,0,2013-01-21 11:17:00
6:39 AM,28.4,23.0,80,30.11,10.0,ENE,3.5,-,N/A,,Clear,70,2013-01-21 11:39:00
7:00 AM,28.4,23.0,80,30.11,10.0,NE,3.5,-,N/A,,Clear,50,2013-01-21 12:00:00
7:21 AM,28.4,23.0,80,30.11,10.0,NE,3.5,-,N/A,,Clear,50,2013-01-21 12:21:00
8:04 AM,32.0,21.2,64,30.11,10.0,NE,3.5,-,N/A,,Clear,50,2013-01-21 13:04:00
8:25 AM,32.0,21.2,64,30.11,10.0,ENE,5.8,-,N/A,,Clear,70,2013-01-21 13:25:00
8:46 AM,32.0,21.2,64,30.12,10.0,East,4.6,-,N/A,,Clear,90,2013-01-21 13:46:00
9:08 AM,33.8,21.2,60,30.11,10.0,East,5.8,-,N/A,,Clear,90,2013-01-21 14:08:00
9:50 AM,35.6,21.2,56,30.10,10.0,East,9.2,-,N/A,,Clear,100,2013-01-21 14:50:00
10:11 AM,35.6,23.0,60,30.10,10.0,ESE,9.2,-,N/A,,Clear,120,2013-01-21 15:11:00
10:33 AM,35.6,23.0,60,30.09,10.0,SE,10.4,-,N/A,,Clear,130,2013-01-21 15:33:00
10:54 AM,37.4,23.0,56,30.08,10.0,ESE,8.1,-,N/A,,Clear,120,2013-01-21 15:54:00
11:15 AM,39.2,23.0,52,30.06,10.0,East,6.9,-,N/A,,Clear,100,2013-01-21 16:15:00
11:37 AM,41.0,24.8,53,30.05,10.0,SSE,5.8,-,N/A,,Clear,160,2013-01-21 16:37:00
11:58 AM,41.0,23.0,49,30.03,10.0,SE,6.9,-,N/A,,Clear,130,2013-01-21 16:58:00
12:19 PM,41.0,24.8,53,30.01,10.0,SSE,10.4,-,N/A,,Clear,150,2013-01-21 17:19:00
1:02 PM,42.8,23.0,46,29.97,10.0,SE,5.8,-,N/A,,Clear,140,2013-01-21 18:02:00
1:23 PM,42.8,24.8,49,29.95,10.0,SSE,6.9,10.4,N/A,,Clear,160,2013-01-21 18:23:00
1:44 PM,42.8,26.6,53,29.94,10.0,South,11.5,16.1,N/A,,Clear,190,2013-01-21 18:44:00
2:06 PM,42.8,28.4,57,29.92,10.0,SSE,10.4,-,N/A,,Clear,150,2013-01-21 19:06:00
2:27 PM,42.8,28.4,57,29.90,10.0,South,6.9,-,N/A,,Clear,170,2013-01-21 19:27:00
2:48 PM,46.4,32.0,57,29.88,10.0,South,9.2,-,N/A,,Clear,170,2013-01-21 19:48:00
3:10 PM,46.4,32.0,57,29.86,10.0,South,9.2,17.3,N/A,,Clear,180,2013-01-21 20:10:00
3:31 PM,46.4,33.8,62,29.84,10.0,South,16.1,20.7,N/A,,Clear,170,2013-01-21 20:31:00
3:52 PM,46.4,33.8,62,29.84,10.0,SSE,9.2,19.6,N/A,,Clear,160,2013-01-21 20:52:00
4:14 PM,46.4,33.8,62,29.82,10.0,SSE,11.5,17.3,N/A,,Clear,160,2013-01-21 21:14:00
4:35 PM,44.6,33.8,66,29.81,10.0,South,6.9,-,N/A,,Clear,180,2013-01-21 21:35:00
4:56 PM,44.6,33.8,66,29.81,10.0,SSE,6.9,-,N/A,,Clear,160,2013-01-21 21:56:00
5:17 PM,42.8,35.6,76,29.80,10.0,South,6.9,-,N/A,,Clear,180,2013-01-21 22:17:00
5:39 PM,42.8,35.6,76,29.79,10.0,South,5.8,-,N/A,,Clear,170,2013-01-21 22:39:00
6:00 PM,41.0,35.6,81,29.79,10.0,South,3.5,-,N/A,,Scattered Clouds,170,2013-01-21 23:00:00
6:21 PM,41.0,33.8,76,29.79,10.0,SSE,3.5,-,N/A,,Clear,160,2013-01-21 23:21:00
6:42 PM,41.0,35.6,81,29.78,10.0,SE,3.5,-,N/A,,Scattered Clouds,140,2013-01-21 23:42:00
7:04 PM,41.0,35.6,81,29.77,10.0,Calm,Calm,-,N/A,,Scattered Clouds,0,2013-01-22 00:04:00
7:25 PM,41.0,35.6,81,29.79,10.0,NW,4.6,-,N/A,,Scattered Clouds,320,2013-01-22 00:25:00
7:46 PM,42.8,35.6,76,29.81,10.0,NNW,13.8,25.3,N/A,,Scattered Clouds,340,2013-01-22 00:46:00
8:08 PM,37.4,28.4,70,29.84,10.0,NNW,20.7,27.6,N/A,,Scattered Clouds,340,2013-01-22 01:08:00
8:29 PM,37.4,30.2,75,29.85,10.0,North,12.7,21.9,N/A,,Mostly Cloudy,360,2013-01-22 01:29:00
8:50 PM,35.6,32.0,87,29.86,10.0,North,11.5,-,N/A,,Mostly Cloudy,350,2013-01-22 01:50:00
9:11 PM,35.6,32.0,87,29.88,10.0,NNW,15.0,21.9,N/A,,Scattered Clouds,340,2013-01-22 02:11:00
9:33 PM,35.6,32.0,87,29.88,10.0,North,12.7,16.1,N/A,,Clear,350,2013-01-22 02:33:00
9:54 PM,35.6,32.0,87,29.89,10.0,North,10.4,-,N/A,,Clear,360,2013-01-22 02:54:00
10:15 PM,33.8,30.2,87,29.89,10.0,North,11.5,-,N/A,,Clear,360,2013-01-22 03:15:00
10:37 PM,32.0,28.4,87,29.89,10.0,North,8.1,-,N/A,,Clear,360,2013-01-22 03:37:00
10:58 PM,32.0,30.2,93,29.90,10.0,North,4.6,-,N/A,,Clear,360,2013-01-22 03:58:00
11:19 PM,35.6,23.0,60,29.91,10.0,NW,10.4,18.4,N/A,,Clear,320,2013-01-22 04:19:00
11:41 PM,35.6,23.0,60,29.91,10.0,NW,13.8,21.9,N/A,,Clear,320,2013-01-22 04:41:00